TimeCEST,TemperatureF,Dew PointF,Humidity,Sea Level PressureIn,VisibilityMPH,Wind Direction,Wind SpeedMPH,Gust SpeedMPH,PrecipitationIn,Events,Conditions,WindDirDegrees,DateUTC
12:00 AM,59,46,51,30.05,,WSW,10.4,,,,,250,2014-04-25 22:00:00
12:30 AM,59.0,46.4,63,30.04,-9999.0,West,8.1,-,N/A,,Clear,260,2014-04-25 22:30:00
1:00 AM,60,47,51,30.06,,WSW,10.4,,,,,240,2014-04-25 23:00:00
1:30 AM,57.2,46.4,67,30.04,-9999.0,Calm,Calm,-,N/A,,Clear,0,2014-04-25 23:30:00
2:00 AM,52,46,74,30.05,19,ENE,3.5,,,,Scattered Clouds,70,2014-04-26 00:00:00
2:00 AM,51.8,46.4,82,30.04,-9999.0,Variable,1.2,-,N/A,,Clear,0,2014-04-26 00:00:00
2:30 AM,50.0,46.4,87,30.04,-9999.0,ENE,2.3,-,N/A,,Clear,60,2014-04-26 00:30:00
3:00 AM,50,46,81,30.04,,NE,2.3,,,,,50,2014-04-26 01:00:00
3:00 AM,50.0,46.4,87,30.04,-9999.0,ENE,2.3,-,N/A,,Clear,60,2014-04-26 01:00:00
3:30 AM,50.0,46.4,87,30.01,-9999.0,Variable,1.2,-,N/A,,Clear,0,2014-04-26 01:30:00
4:00 AM,48,45,84,30.02,,East,2.3,,,,,90,2014-04-26 02:00:00
4:00 AM,48.2,44.6,87,30.01,-9999.0,ENE,2.3,-,N/A,,Clear,60,2014-04-26 02:00:00
4:30 AM,46.4,44.6,93,30.01,-9999.0,ENE,3.5,-,N/A,,Clear,70,2014-04-26 02:30:00
5:00 AM,46,44,91,30.01,16,Calm,Calm,,,,Scattered Clouds,,2014-04-26 03:00:00
5:00 AM,46.4,44.6,93,30.01,-9999.0,Variable,2.3,-,N/A,,Clear,0,2014-04-26 03:00:00
5:30 AM,48.2,46.4,93,30.01,-9999.0,Calm,Calm,-,N/A,,Clear,0,2014-04-26 03:30:00
6:00 AM,46,44,89,30.00,,East,1.2,,,,,100,2014-04-26 04:00:00
6:00 AM,46.4,44.6,93,29.98,6.2,Calm,Calm,-,N/A,,Partly Cloudy,0,2014-04-26 04:00:00
6:30 AM,46.4,44.6,93,29.98,-9999.0,Calm,Calm,-,N/A,,Clear,0,2014-04-26 04:30:00
7:00 AM,49,44,76,30.00,,SE,1.2,,,,,140,2014-04-26 05:00:00
7:30 AM,48.2,46.4,93,30.01,-9999.0,Calm,Calm,-,N/A,,Clear,0,2014-04-26 05:30:00
8:00 AM,56,46,59,30.01,16,NW,2.3,,,,Clear,320,2014-04-26 06:00:00
8:00 AM,53.6,46.4,77,30.01,-9999.0,Calm,Calm,-,N/A,,Clear,0,2014-04-26 06:00:00
8:30 AM,60.8,48.2,63,30.01,-9999.0,Calm,Calm,-,N/A,,Clear,0,2014-04-26 06:30:00
9:00 AM,65,47,41,30.02,,North,6.9,,,,,0,2014-04-26 07:00:00
9:00 AM,64.4,48.2,56,30.01,6.2,SE,3.5,-,N/A,,Partly Cloudy,130,2014-04-26 07:00:00
9:30 AM,66.2,46.4,49,30.01,-9999.0,SE,2.3,-,N/A,,Clear,130,2014-04-26 07:30:00
10:00 AM,68,42,28,30.02,,NNW,8.1,,,,,340,2014-04-26 08:00:00
10:00 AM,68.0,42.8,40,30.01,-9999.0,NNW,8.1,-,N/A,,Clear,330,2014-04-26 08:00:00
10:30 AM,68.0,44.6,43,30.01,-9999.0,NNW,6.9,-,N/A,,Clear,340,2014-04-26 08:30:00
11:00 AM,70,43,26,30.03,,NNW,11.5,,,,,330,2014-04-26 09:00:00
11:00 AM,68.0,42.8,40,30.01,6.2,NNW,10.4,-,N/A,,Partly Cloudy,330,2014-04-26 09:00:00
11:30 AM,69.8,46.4,43,30.04,6.2,NW,10.4,-,N/A,,Partly Cloudy,320,2014-04-26 09:30:00
12:00 PM,72,45,27,30.04,,NW,5.8,,,,,320,2014-04-26 10:00:00
12:00 PM,69.8,44.6,40,30.04,-9999.0,NNW,8.1,-,N/A,,Clear,330,2014-04-26 10:00:00
12:30 PM,69.8,42.8,38,30.04,-9999.0,NW,6.9,-,N/A,,Clear,310,2014-04-26 10:30:00
1:00 PM,73,44,24,30.03,,SW,9.2,,,,,230,2014-04-26 11:00:00
1:00 PM,69.8,44.6,40,30.01,-9999.0,WNW,8.1,21.9,N/A,,Clear,290,2014-04-26 11:00:00
1:30 PM,69.8,44.6,40,30.01,-9999.0,SW,9.2,-,N/A,,Clear,220,2014-04-26 11:30:00
2:00 PM,72,44,26,30.02,19,SSW,11.5,,,,Clear,210,2014-04-26 12:00:00
2:00 PM,69.8,46.4,43,30.01,-9999.0,SW,11.5,-,N/A,,Clear,220,2014-04-26 12:00:00
2:30 PM,71.6,44.6,38,30.01,-9999.0,SW,11.5,-,N/A,,Clear,230,2014-04-26 12:30:00
3:00 PM,72,47,30,30.00,,WSW,18.4,,,,,240,2014-04-26 13:00:00
3:00 PM,71.6,48.2,43,30.01,-9999.0,WSW,16.1,-,N/A,,Clear,240,2014-04-26 13:00:00
3:30 PM,68.0,51.8,56,29.98,-9999.0,SW,16.1,-,N/A,,Clear,230,2014-04-26 13:30:00
4:00 PM,69,49,37,29.99,,WSW,21.9,,,,,240,2014-04-26 14:00:00
4:00 PM,68.0,51.8,56,29.98,-9999.0,SW,16.1,-,N/A,,Clear,230,2014-04-26 14:00:00
4:30 PM,68.0,48.2,49,29.98,-9999.0,WSW,15.0,-,N/A,,Clear,240,2014-04-26 14:30:00
5:00 PM,70,45,30,29.97,25,SW,15.0,,,,Scattered Clouds,220,2014-04-26 15:00:00
5:00 PM,68.0,42.8,40,29.95,-9999.0,SW,12.7,-,N/A,,Clear,230,2014-04-26 15:00:00
5:30 PM,68.0,50.0,52,29.95,-9999.0,SW,15.0,-,N/A,,Clear,230,2014-04-26 15:30:00
6:00 PM,69,53,47,29.97,,SW,17.3,,,,,220,2014-04-26 16:00:00
6:00 PM,68.0,53.6,60,29.95,-9999.0,SW,15.0,-,N/A,,Clear,230,2014-04-26 16:00:00
6:30 PM,66.2,53.6,64,29.95,-9999.0,SW,15.0,-,N/A,,Clear,230,2014-04-26 16:30:00
7:00 PM,67,54,53,29.96,,SSW,13.8,,,,,210,2014-04-26 17:00:00
7:00 PM,66.2,53.6,64,29.95,-9999.0,SW,13.8,-,N/A,,Clear,220,2014-04-26 17:00:00
7:30 PM,64.4,55.4,73,29.95,-9999.0,SSW,9.2,-,N/A,,Clear,210,2014-04-26 17:30:00
8:00 PM,65,55,62,29.94,12,SW,10.4,,,,Mostly Cloudy,220,2014-04-26 18:00:00
8:00 PM,64.4,55.4,73,29.92,-9999.0,SW,6.9,-,N/A,,Clear,220,2014-04-26 18:00:00
8:30 PM,64.4,55.4,73,29.92,-9999.0,WSW,6.9,-,N/A,,Clear,240,2014-04-26 18:30:00
9:00 PM,63,57,75,29.94,,WSW,8.1,,,,,250,2014-04-26 19:00:00
9:00 PM,62.6,57.2,82,29.92,-9999.0,WSW,5.8,-,N/A,,Clear,240,2014-04-26 19:00:00
9:30 PM,64.4,57.2,77,29.95,-9999.0,WSW,9.2,-,N/A,,Clear,240,2014-04-26 19:30:00
10:00 PM,64,57,71,29.95,,SW,6.9,,,,,230,2014-04-26 20:00:00
10:00 PM,64.4,57.2,77,29.95,6.2,WSW,5.8,-,N/A,,Partly Cloudy,240,2014-04-26 20:00:00
10:30 PM,62.6,57.2,82,29.95,6.2,SW,2.3,-,N/A,,Partly Cloudy,220,2014-04-26 20:30:00
11:00 PM,63,57,76,29.94,9,South,2.3,,,,Scattered Clouds,170,2014-04-26 21:00:00
11:00 PM,62.6,57.2,82,29.92,6.2,Calm,Calm,-,N/A,,Partly Cloudy,0,2014-04-26 21:00:00
11:30 PM,62.6,57.2,82,29.92,6.2,Calm,Calm,-,N/A,,Partly Cloudy,0,2014-04-26 21:30:00